TAM3189 SBBE-SBEG

Flight info

Callsign TAM3189
Flight time 1h 42m
Altitude 36000
Route ILMAN UZ81 KULAB
Aircraft A320/M-SDE3FGHIRWY/LB1

Departure

Time 2026-05-05 22:03
Airport Val de Cans/Júlio Cezar Ribeiro International Airport (SBBE)

Arrival

Time 2026-05-05 23:46
Airport Eduardo Gomes International Airport (SBEG)
Time Latitude Longitude Altitude Speed Heading
2026-05-05 21:38 -1.38995 -48.47890 43 ft 0 kts 275°
2026-05-05 21:41 -1.38995 -48.47889 43 ft 0 kts 275°
2026-05-05 21:57 -1.38997 -48.47868 43 ft 4 kts 281°
2026-05-05 21:57 -1.39005 -48.47843 42 ft 4 kts 298°
2026-05-05 21:58 -1.39021 -48.47825 41 ft 4 kts 346°
2026-05-05 21:58 -1.39032 -48.47823 43 ft 1 kts
2026-05-05 21:58 -1.39033 -48.47823 43 ft 2 kts
2026-05-05 22:00 -1.39030 -48.47823 43 ft 1 kts
2026-05-05 22:01 -1.39024 -48.47813 43 ft 3 kts 65°
2026-05-05 22:01 -1.39024 -48.47787 43 ft 5 kts 92°
2026-05-05 22:01 -1.39026 -48.47749 43 ft 6 kts 94°
2026-05-05 22:01 -1.39020 -48.47705 44 ft 6 kts 39°
2026-05-05 22:02 -1.39008 -48.47700 42 ft 7 kts 24°
2026-05-05 22:02 -1.38996 -48.47698 44 ft 0 kts
2026-05-05 22:03 -1.38856 -48.47695 44 ft 60 kts
2026-05-05 22:03 -1.38167 -48.47640 43 ft 134 kts
2026-05-05 22:03 -1.37095 -48.47547 384 ft 159 kts
2026-05-05 22:03 -1.36007 -48.47461 1244 ft 154 kts
2026-05-05 22:04 -1.34933 -48.47533 1809 ft 161 kts 340°
2026-05-05 22:04 -1.34078 -48.48368 2024 ft 191 kts 299°
2026-05-05 22:04 -1.33924 -48.49749 2252 ft 215 kts 261°
2026-05-05 22:04 -1.34258 -48.51290 2459 ft 240 kts 258°
2026-05-05 22:05 -1.34648 -48.52995 2768 ft 264 kts 257°
2026-05-05 22:05 -1.35070 -48.54842 3367 ft 277 kts 257°
2026-05-05 22:05 -1.35497 -48.56745 4135 ft 283 kts 256°
2026-05-05 22:05 -1.36210 -48.58552 4918 ft 285 kts 234°
2026-05-05 22:06 -1.37511 -48.60043 5696 ft 286 kts 223°
2026-05-05 22:06 -1.38925 -48.61459 6494 ft 288 kts 223°
2026-05-05 22:06 -1.40356 -48.62891 7212 ft 293 kts 223°
2026-05-05 22:06 -1.41798 -48.64339 7972 ft 296 kts 224°
2026-05-05 22:07 -1.43212 -48.65852 8716 ft 300 kts 226°
2026-05-05 22:07 -1.44595 -48.67432 9423 ft 304 kts 230°
2026-05-05 22:07 -1.45708 -48.69240 10093 ft 308 kts 247°
2026-05-05 22:07 -1.46333 -48.71324 10474 ft 323 kts 262°
2026-05-05 22:08 -1.46526 -48.73638 10626 ft 344 kts 266°
2026-05-05 22:08 -1.46682 -48.76058 11055 ft 353 kts 266°
2026-05-05 22:08 -1.46846 -48.78518 11647 ft 356 kts 266°
2026-05-05 22:08 -1.47019 -48.80998 12263 ft 359 kts 266°
2026-05-05 22:09 -1.47199 -48.83493 12870 ft 362 kts 265°
2026-05-05 22:09 -1.47380 -48.85983 13476 ft 365 kts 265°
2026-05-05 22:09 -1.47565 -48.88519 14043 ft 368 kts 265°
2026-05-05 22:09 -1.47754 -48.91080 14568 ft 371 kts 265°
2026-05-05 22:10 -1.47942 -48.93657 15082 ft 373 kts 265°
2026-05-05 22:10 -1.48126 -48.96252 15601 ft 376 kts 265°
2026-05-05 22:10 -1.48311 -48.98874 16104 ft 379 kts 265°
2026-05-05 22:10 -1.48495 -49.01515 16596 ft 382 kts 265°
2026-05-05 22:11 -1.48682 -49.04181 17099 ft 385 kts 265°
2026-05-05 22:11 -1.48872 -49.06861 17596 ft 388 kts 265°
2026-05-05 22:11 -1.49066 -49.09561 18078 ft 391 kts 265°
2026-05-05 22:11 -1.49261 -49.12289 18503 ft 395 kts 265°
2026-05-05 22:12 -1.49594 -49.15023 18906 ft 398 kts 259°
2026-05-05 22:12 -1.50049 -49.17752 19327 ft 400 kts 259°
2026-05-05 22:12 -1.50506 -49.20506 19778 ft 403 kts 259°
2026-05-05 22:12 -1.50960 -49.23236 20203 ft 405 kts 259°
2026-05-05 22:13 -1.51430 -49.26059 20636 ft 408 kts 259°
2026-05-05 22:13 -1.51892 -49.28831 21065 ft 411 kts 259°
2026-05-05 22:13 -1.52360 -49.31649 21503 ft 413 kts 259°
2026-05-05 22:13 -1.52831 -49.34493 21937 ft 415 kts 259°
2026-05-05 22:14 -1.53302 -49.37346 22361 ft 418 kts 259°
2026-05-05 22:14 -1.53780 -49.40222 22779 ft 421 kts 259°
2026-05-05 22:14 -1.54261 -49.43112 23180 ft 423 kts 259°
2026-05-05 22:14 -1.54745 -49.46022 23570 ft 426 kts 259°
2026-05-05 22:15 -1.55231 -49.48947 23897 ft 428 kts 259°
2026-05-05 22:15 -1.55561 -49.50936 24115 ft 429 kts 259°
2026-05-05 22:15 -1.56045 -49.53847 24437 ft 431 kts 259°
2026-05-05 22:15 -1.56537 -49.56816 24765 ft 433 kts 259°
2026-05-05 22:16 -1.57031 -49.59791 25084 ft 435 kts 259°
2026-05-05 22:16 -1.57526 -49.62776 25398 ft 436 kts 259°
2026-05-05 22:16 -1.58022 -49.65772 25712 ft 438 kts 259°
2026-05-05 22:16 -1.58521 -49.68780 26020 ft 440 kts 259°
2026-05-05 22:17 -1.59024 -49.71801 26324 ft 442 kts 259°
2026-05-05 22:17 -1.59530 -49.74839 26615 ft 443 kts 259°
2026-05-05 22:17 -1.60035 -49.77881 26902 ft 445 kts 259°
2026-05-05 22:17 -1.60540 -49.80937 27183 ft 447 kts 259°
2026-05-05 22:18 -1.61048 -49.84014 27468 ft 449 kts 259°
2026-05-05 22:18 -1.61558 -49.87090 27747 ft 450 kts 259°
2026-05-05 22:18 -1.62071 -49.90189 28022 ft 452 kts 259°
2026-05-05 22:18 -1.62586 -49.93291 28294 ft 454 kts 259°
2026-05-05 22:19 -1.63105 -49.96404 28568 ft 456 kts 259°
2026-05-05 22:19 -1.63617 -49.99501 28843 ft 458 kts 259°
2026-05-05 22:19 -1.64135 -50.02642 29119 ft 459 kts 259°
2026-05-05 22:19 -1.64656 -50.05798 29400 ft 461 kts 259°
2026-05-05 22:20 -1.65183 -50.08968 29682 ft 463 kts 259°
2026-05-05 22:20 -1.65709 -50.12144 29955 ft 465 kts 259°
2026-05-05 22:20 -1.66239 -50.15341 30199 ft 467 kts 259°
2026-05-05 22:20 -1.66774 -50.18551 30435 ft 468 kts 259°
2026-05-05 22:21 -1.67305 -50.21755 30769 ft 467 kts 259°
2026-05-05 22:21 -1.67833 -50.24950 31128 ft 465 kts 259°
2026-05-05 22:21 -1.68361 -50.28138 31479 ft 464 kts 259°
2026-05-05 22:21 -1.68886 -50.31314 31831 ft 463 kts 259°
2026-05-05 22:22 -1.69408 -50.34477 32187 ft 462 kts 259°
2026-05-05 22:22 -1.69929 -50.37642 32547 ft 460 kts 259°
2026-05-05 22:22 -1.70449 -50.40796 32912 ft 459 kts 259°
2026-05-05 22:22 -1.70967 -50.43938 33278 ft 458 kts 259°
2026-05-05 22:23 -1.71485 -50.47081 33640 ft 457 kts 259°
2026-05-05 22:23 -1.72003 -50.50208 33993 ft 456 kts 259°
2026-05-05 22:23 -1.72523 -50.53337 34294 ft 455 kts 259°
2026-05-05 22:23 -1.73043 -50.56450 34587 ft 454 kts 259°
2026-05-05 22:24 -1.73560 -50.59562 34877 ft 453 kts 259°
2026-05-05 22:24 -1.74074 -50.62665 35165 ft 452 kts 259°
2026-05-05 22:24 -1.74587 -50.65773 35448 ft 451 kts 259°
2026-05-05 22:24 -1.75097 -50.68861 35742 ft 450 kts 259°
2026-05-05 22:25 -1.75598 -50.71903 35978 ft 450 kts 259°
2026-05-05 22:25 -1.76615 -50.78084 36047 ft 451 kts 259°
2026-05-05 22:26 -1.77635 -50.84262 36047 ft 451 kts 259°
2026-05-05 22:26 -1.78656 -50.90436 36047 ft 450 kts 259°
2026-05-05 22:27 -1.79672 -50.96605 36047 ft 449 kts 259°
2026-05-05 22:27 -1.80695 -51.02765 36048 ft 449 kts 259°
2026-05-05 22:28 -1.81710 -51.08924 36051 ft 449 kts 259°
2026-05-05 22:28 -1.82731 -51.15091 36053 ft 449 kts 260°
2026-05-05 22:29 -1.83744 -51.21257 36054 ft 449 kts 259°
2026-05-05 22:29 -1.84757 -51.27425 36055 ft 450 kts 259°
2026-05-05 22:30 -1.85782 -51.33593 36062 ft 450 kts 259°
2026-05-05 22:30 -1.86797 -51.39725 36055 ft 450 kts 260°
2026-05-05 22:31 -1.87807 -51.45898 36055 ft 450 kts 259°
2026-05-05 22:31 -1.88827 -51.52074 36055 ft 450 kts 260°
2026-05-05 22:32 -1.89852 -51.58253 36052 ft 451 kts 260°
2026-05-05 22:32 -1.90871 -51.64445 36050 ft 451 kts 260°
2026-05-05 22:33 -1.91893 -51.70643 36051 ft 452 kts 260°
2026-05-05 22:33 -1.92904 -51.76804 36051 ft 452 kts 260°
2026-05-05 22:34 -1.93922 -51.83011 36055 ft 452 kts 260°
2026-05-05 22:34 -1.94940 -51.89217 36056 ft 453 kts 259°
2026-05-05 22:35 -1.95975 -51.95436 36057 ft 453 kts 260°
2026-05-05 22:35 -1.96998 -52.01648 36059 ft 453 kts 260°
2026-05-05 22:36 -1.98020 -52.07868 36058 ft 453 kts 260°
2026-05-05 22:36 -1.99037 -52.14054 36058 ft 454 kts 260°
2026-05-05 22:37 -2.00067 -52.20288 36058 ft 454 kts 260°
2026-05-05 22:37 -2.01089 -52.26523 36059 ft 455 kts 260°
2026-05-05 22:38 -2.02098 -52.32763 36063 ft 455 kts 261°
2026-05-05 22:38 -2.03122 -52.39010 36063 ft 455 kts 260°
2026-05-05 22:39 -2.04158 -52.45245 36063 ft 455 kts 260°
2026-05-05 22:39 -2.05184 -52.51484 36063 ft 455 kts 261°
2026-05-05 22:40 -2.06186 -52.57693 36060 ft 455 kts 261°
2026-05-05 22:40 -2.07196 -52.63932 36061 ft 455 kts 260°
2026-05-05 22:41 -2.08214 -52.70179 36059 ft 455 kts 261°
2026-05-05 22:41 -2.09222 -52.76419 36062 ft 455 kts 261°
2026-05-05 22:42 -2.10233 -52.82667 36059 ft 455 kts 261°
2026-05-05 22:42 -2.11247 -52.88897 36063 ft 454 kts 261°
2026-05-05 22:43 -2.12255 -52.95095 36060 ft 454 kts 261°
2026-05-05 22:43 -2.13272 -53.01326 36058 ft 454 kts 261°
2026-05-05 22:44 -2.14291 -53.07568 36054 ft 454 kts 260°
2026-05-05 22:44 -2.15304 -53.13801 36048 ft 454 kts 261°
2026-05-05 22:45 -2.16320 -53.20032 36047 ft 454 kts 261°
2026-05-05 22:45 -2.17335 -53.26272 36047 ft 455 kts 261°
2026-05-05 22:46 -2.18360 -53.32518 36048 ft 455 kts 260°
2026-05-05 22:46 -2.19383 -53.38770 36046 ft 456 kts 261°
2026-05-05 22:47 -2.20398 -53.45025 36046 ft 455 kts 261°
2026-05-05 22:47 -2.21407 -53.51238 36049 ft 455 kts 261°
2026-05-05 22:48 -2.22421 -53.57489 36046 ft 456 kts 261°
2026-05-05 22:48 -2.23442 -53.63754 36050 ft 456 kts 261°
2026-05-05 22:49 -2.24462 -53.70013 36053 ft 456 kts 261°
2026-05-05 22:49 -2.25483 -53.76268 36053 ft 456 kts 261°
2026-05-05 22:50 -2.26504 -53.82530 36047 ft 456 kts 261°
2026-05-05 22:50 -2.27527 -53.88799 36037 ft 457 kts 260°
2026-05-05 22:51 -2.28551 -53.95074 36044 ft 457 kts 261°
2026-05-05 22:51 -2.29578 -54.01358 36042 ft 458 kts 260°
2026-05-05 22:52 -2.30599 -54.07640 36043 ft 458 kts 260°
2026-05-05 22:52 -2.31614 -54.13891 36041 ft 458 kts 260°
2026-05-05 22:53 -2.32630 -54.20174 36044 ft 458 kts 261°
2026-05-05 22:53 -2.33655 -54.26462 36036 ft 458 kts 260°
2026-05-05 22:54 -2.34686 -54.32764 36039 ft 459 kts 260°
2026-05-05 22:54 -2.35712 -54.39067 36044 ft 459 kts 260°
2026-05-05 22:55 -2.36743 -54.45374 36041 ft 460 kts 261°
2026-05-05 22:55 -2.37766 -54.51685 36039 ft 460 kts 261°
2026-05-05 22:56 -2.38679 -54.58021 36029 ft 461 kts 262°
2026-05-05 22:56 -2.39514 -54.64339 36028 ft 460 kts 262°
2026-05-05 22:57 -2.40362 -54.70682 36021 ft 461 kts 262°
2026-05-05 22:57 -2.41237 -54.77033 36023 ft 461 kts 261°
2026-05-05 22:58 -2.42124 -54.83378 36022 ft 460 kts 262°
2026-05-05 22:58 -2.43001 -54.89725 36018 ft 460 kts 261°
2026-05-05 22:59 -2.43876 -54.96066 36023 ft 460 kts 261°
2026-05-05 22:59 -2.44754 -55.02412 36022 ft 461 kts 261°
2026-05-05 23:00 -2.46073 -55.11921 36027 ft 460 kts 262°
2026-05-05 23:00 -2.46946 -55.18255 36029 ft 460 kts 262°
2026-05-05 23:01 -2.47819 -55.24603 36028 ft 460 kts 262°
2026-05-05 23:01 -2.48682 -55.30900 36029 ft 460 kts 262°
2026-05-05 23:02 -2.49559 -55.37239 36035 ft 460 kts 262°
2026-05-05 23:02 -2.50388 -55.43586 36030 ft 460 kts 263°
2026-05-05 23:03 -2.51096 -55.49940 36028 ft 460 kts 263°
2026-05-05 23:03 -2.51791 -55.56298 36030 ft 460 kts 263°
2026-05-05 23:04 -2.52518 -55.62643 36035 ft 459 kts 263°
2026-05-05 23:04 -2.53256 -55.68967 36032 ft 458 kts 263°
2026-05-05 23:05 -2.53985 -55.75296 36031 ft 458 kts 263°
2026-05-05 23:05 -2.54590 -55.80548 36027 ft 457 kts 263°
2026-05-05 23:06 -2.55318 -55.86869 36030 ft 457 kts 263°
2026-05-05 23:06 -2.56047 -55.93194 36029 ft 458 kts 263°
2026-05-05 23:07 -2.56766 -55.99520 36032 ft 458 kts 263°
2026-05-05 23:07 -2.57493 -56.05846 36031 ft 458 kts 263°
2026-05-05 23:08 -2.58222 -56.12171 36030 ft 457 kts 263°
2026-05-05 23:08 -2.58947 -56.18459 36030 ft 457 kts 263°
2026-05-05 23:09 -2.59673 -56.24781 36030 ft 457 kts 263°
2026-05-05 23:09 -2.60393 -56.31101 36031 ft 457 kts 263°
2026-05-05 23:10 -2.61119 -56.37417 36032 ft 457 kts 263°
2026-05-05 23:10 -2.61850 -56.43732 36031 ft 457 kts 263°
2026-05-05 23:11 -2.62573 -56.50006 36031 ft 457 kts 263°
2026-05-05 23:11 -2.63302 -56.56315 36025 ft 457 kts 263°
2026-05-05 23:12 -2.64040 -56.62625 36029 ft 457 kts 263°
2026-05-05 23:12 -2.64761 -56.68935 36031 ft 457 kts 263°
2026-05-05 23:13 -2.65496 -56.75343 36013 ft 470 kts 263°
2026-05-05 23:13 -2.66249 -56.81918 36012 ft 480 kts 263°
2026-05-05 23:14 -2.67021 -56.88577 36012 ft 484 kts 263°
2026-05-05 23:14 -2.67783 -56.95216 36011 ft 484 kts 263°
2026-05-05 23:15 -2.68556 -57.01915 36014 ft 484 kts 263°
2026-05-05 23:15 -2.69321 -57.08604 36017 ft 485 kts 263°
2026-05-05 23:16 -2.70088 -57.15309 36014 ft 485 kts 263°
2026-05-05 23:16 -2.70864 -57.22022 36016 ft 486 kts 263°
2026-05-05 23:17 -2.71640 -57.28751 36022 ft 487 kts 263°
2026-05-05 23:17 -2.72417 -57.35479 36027 ft 487 kts 263°
2026-05-05 23:18 -2.73193 -57.42217 36031 ft 487 kts 263°
2026-05-05 23:18 -2.73955 -57.48908 36031 ft 488 kts 264°
2026-05-05 23:19 -2.74721 -57.55651 36033 ft 488 kts 263°
2026-05-05 23:19 -2.75487 -57.62392 36037 ft 488 kts 264°
2026-05-05 23:20 -2.76260 -57.69133 36038 ft 488 kts 264°
2026-05-05 23:20 -2.77029 -57.75878 36040 ft 487 kts 264°
2026-05-05 23:21 -2.77794 -57.82602 36043 ft 487 kts 264°
2026-05-05 23:21 -2.78556 -57.89338 36041 ft 487 kts 264°
2026-05-05 23:22 -2.79322 -57.96059 36036 ft 487 kts 263°
2026-05-05 23:22 -2.80104 -58.02796 36033 ft 488 kts 263°
2026-05-05 23:23 -2.80881 -58.09534 36036 ft 488 kts 263°
2026-05-05 23:23 -2.81647 -58.16238 36036 ft 488 kts 263°
2026-05-05 23:24 -2.82409 -58.22983 36036 ft 488 kts 263°
2026-05-05 23:24 -2.83190 -58.29783 35706 ft 489 kts 263°
2026-05-05 23:25 -2.83574 -58.33122 35227 ft 489 kts 263°
2026-05-05 23:25 -2.83961 -58.36507 34710 ft 490 kts 263°
2026-05-05 23:25 -2.84346 -58.39898 34173 ft 492 kts 263°
2026-05-05 23:25 -2.84731 -58.43303 33591 ft 493 kts 263°
2026-05-05 23:26 -2.85115 -58.46714 33053 ft 495 kts 263°
2026-05-05 23:26 -2.85496 -58.50141 32521 ft 497 kts 264°
2026-05-05 23:26 -2.85793 -58.53587 32003 ft 498 kts 266°
2026-05-05 23:26 -2.85990 -58.57057 31481 ft 500 kts 267°
2026-05-05 23:27 -2.86122 -58.60534 30967 ft 501 kts 268°
2026-05-05 23:27 -2.86227 -58.64021 30456 ft 502 kts 268°
2026-05-05 23:27 -2.86338 -58.67519 29928 ft 504 kts 268°
2026-05-05 23:27 -2.86472 -58.71024 29406 ft 505 kts 267°
2026-05-05 23:28 -2.86634 -58.74538 28901 ft 506 kts 266°
2026-05-05 23:28 -2.86815 -58.78063 28426 ft 508 kts 266°
2026-05-05 23:28 -2.87004 -58.81593 27940 ft 509 kts 266°
2026-05-05 23:28 -2.87193 -58.85130 27441 ft 510 kts 266°
2026-05-05 23:29 -2.87376 -58.88679 26943 ft 512 kts 266°
2026-05-05 23:29 -2.87552 -58.92236 26428 ft 513 kts 266°
2026-05-05 23:29 -2.87723 -58.95790 25915 ft 510 kts 267°
2026-05-05 23:29 -2.87893 -58.99321 25373 ft 507 kts 266°
2026-05-05 23:30 -2.88062 -59.02831 24845 ft 504 kts 267°
2026-05-05 23:30 -2.88229 -59.06323 24290 ft 500 kts 267°
2026-05-05 23:30 -2.88391 -59.09738 23755 ft 497 kts 267°
2026-05-05 23:30 -2.88555 -59.13175 23141 ft 493 kts 267°
2026-05-05 23:31 -2.88719 -59.16589 22592 ft 489 kts 267°
2026-05-05 23:31 -2.88882 -59.19977 22040 ft 485 kts 267°
2026-05-05 23:31 -2.89044 -59.23333 21584 ft 482 kts 267°
2026-05-05 23:31 -2.89208 -59.26669 21124 ft 478 kts 266°
2026-05-05 23:32 -2.89372 -59.29977 20674 ft 475 kts 267°
2026-05-05 23:32 -2.89532 -59.33270 20228 ft 472 kts 267°
2026-05-05 23:32 -2.89688 -59.36548 19793 ft 469 kts 267°
2026-05-05 23:32 -2.89842 -59.39796 19355 ft 466 kts 267°
2026-05-05 23:33 -2.89997 -59.43027 18929 ft 463 kts 267°
2026-05-05 23:33 -2.90153 -59.46236 18507 ft 461 kts 267°
2026-05-05 23:33 -2.90309 -59.49428 18063 ft 458 kts 267°
2026-05-05 23:33 -2.90463 -59.52594 17578 ft 454 kts 267°
2026-05-05 23:34 -2.90616 -59.55741 17082 ft 451 kts 267°
2026-05-05 23:34 -2.90766 -59.58864 16584 ft 447 kts 267°
2026-05-05 23:34 -2.90910 -59.61954 16105 ft 443 kts 267°
2026-05-05 23:34 -2.91053 -59.65012 15630 ft 439 kts 267°
2026-05-05 23:35 -2.91196 -59.68017 15171 ft 435 kts 267°
2026-05-05 23:35 -2.91340 -59.71030 14709 ft 432 kts 267°
2026-05-05 23:35 -2.91482 -59.74022 14258 ft 428 kts 267°
2026-05-05 23:35 -2.91620 -59.76983 13785 ft 424 kts 267°
2026-05-05 23:36 -2.91755 -59.79908 13265 ft 417 kts 267°
2026-05-05 23:36 -2.91888 -59.82780 12784 ft 408 kts 267°
2026-05-05 23:36 -2.92019 -59.85582 12320 ft 399 kts 267°
2026-05-05 23:36 -2.92148 -59.88329 11859 ft 392 kts 267°
2026-05-05 23:37 -2.92276 -59.91026 11404 ft 384 kts 267°
2026-05-05 23:37 -2.92402 -59.93676 10955 ft 378 kts 267°
2026-05-05 23:37 -2.92527 -59.96290 10513 ft 373 kts 267°
2026-05-05 23:37 -2.92651 -59.98865 10074 ft 368 kts 267°
2026-05-05 23:38 -2.92771 -60.01404 9628 ft 364 kts 267°
2026-05-05 23:38 -2.92890 -60.03917 9151 ft 360 kts 267°
2026-05-05 23:38 -2.93006 -60.06403 8680 ft 356 kts 267°
2026-05-05 23:38 -2.93120 -60.08859 8213 ft 347 kts 267°
2026-05-05 23:39 -2.93229 -60.11191 7694 ft 334 kts 267°
2026-05-05 23:39 -2.93336 -60.13513 7139 ft 325 kts 267°
2026-05-05 23:39 -2.93436 -60.15686 6851 ft 309 kts 267°
2026-05-05 23:39 -2.93535 -60.17780 6549 ft 295 kts 267°
2026-05-05 23:40 -2.93639 -60.19809 6111 ft 288 kts 264°
2026-05-05 23:40 -2.94144 -60.21705 5670 ft 279 kts 241°
2026-05-05 23:40 -2.95262 -60.23237 5236 ft 269 kts 219°
2026-05-05 23:40 -2.96784 -60.24242 4822 ft 258 kts 198°
2026-05-05 23:41 -2.98439 -60.24787 4527 ft 243 kts 188°
2026-05-05 23:41 -3.00048 -60.24874 4303 ft 218 kts 166°
2026-05-05 23:41 -3.01428 -60.24456 4068 ft 199 kts 149°
2026-05-05 23:41 -3.02518 -60.23696 3680 ft 185 kts 133°
2026-05-05 23:42 -3.03274 -60.22720 3334 ft 169 kts 117°
2026-05-05 23:42 -3.03690 -60.21686 2985 ft 155 kts 103°
2026-05-05 23:42 -3.03823 -60.20641 2737 ft 148 kts 90°
2026-05-05 23:42 -3.03826 -60.19600 2708 ft 150 kts 90°
2026-05-05 23:43 -3.03828 -60.18554 2581 ft 151 kts 90°
2026-05-05 23:43 -3.03831 -60.17507 2416 ft 151 kts 89°
2026-05-05 23:43 -3.03833 -60.16457 2230 ft 151 kts 90°
2026-05-05 23:43 -3.03836 -60.15411 2041 ft 151 kts 89°
2026-05-05 23:44 -3.03838 -60.14361 1852 ft 151 kts 89°
2026-05-05 23:44 -3.03840 -60.13303 1662 ft 152 kts 89°
2026-05-05 23:44 -3.03843 -60.12246 1458 ft 152 kts 90°
2026-05-05 23:44 -3.03845 -60.11188 1260 ft 153 kts 89°
2026-05-05 23:45 -3.03848 -60.10126 1063 ft 153 kts 89°
2026-05-05 23:45 -3.03850 -60.09064 872 ft 152 kts 88°
2026-05-05 23:45 -3.03853 -60.08035 672 ft 144 kts 88°
2026-05-05 23:45 -3.03855 -60.07047 481 ft 142 kts 88°
2026-05-05 23:46 -3.03857 -60.06069 295 ft 140 kts 88°
2026-05-05 23:46 -3.03857 -60.05221 269 ft 87 kts 90°
2026-05-05 23:46 -3.03860 -60.04827 270 ft 48 kts 90°
2026-05-05 23:46 -3.03856 -60.04460 271 ft 56 kts 90°
2026-05-05 23:47 -3.03861 -60.04091 271 ft 43 kts 91°
2026-05-05 23:47 -3.03865 -60.03850 270 ft 25 kts 88°
2026-05-05 23:47 -3.03767 -60.03772 270 ft 19 kts 346°
2026-05-05 23:47 -3.03679 -60.03864 270 ft 19 kts 287°
2026-05-05 23:48 -3.03639 -60.04011 270 ft 26 kts 284°
2026-05-05 23:48 -3.03603 -60.04155 270 ft 19 kts 284°
2026-05-05 23:48 -3.03540 -60.04281 270 ft 21 kts 310°
2026-05-05 23:48 -3.03415 -60.04367 270 ft 23 kts 340°
2026-05-05 23:49 -3.03338 -60.04444 270 ft 13 kts 267°
2026-05-05 23:49 -3.03343 -60.04526 270 ft 8 kts 314°
2026-05-05 23:49 -3.03280 -60.04539 270 ft 7 kts 357°
2026-05-05 23:49 -3.03269 -60.04540 270 ft 0 kts 355°
2026-05-06 00:28 -3.03270 -60.04540 270 ft 0 kts 355°